User: anonymous   Login
Location: Sungai Anya
(2.6167°N, 114.0500°E)
Time: 18:55:15
(UTC+00:00)
Language:

NOSS 2-2 (E) - Orbit

View from above orbital plane
View from above orbital plane
View from above satellite
View from above satellite

Ground track
Ground track

The orbit data is extracted from the following two-line orbital elements,

1 21809U 91076E   22014.22686690 0.00000300  00000-0  44021-4 0    02
2 21809  63.3156  85.5864 0880897  44.6322 315.3678 13.41943288    09
Epoch (UTC): 14 January 2022 05:26:41
Eccentricity: 0.0880897
inclination: 63.3156°
perigee height: 443 km
apogee height: 1761 km
right ascension of ascending node: 85.5864°
argument of perigee: 44.6322°
revolutions per day: 13.41943288
mean anomaly at epoch: 315.3678°
orbit number at epoch: 0

The dashed part of the orbit path shows where the satellite is in the earth's shadow,  

DLR